Greer, SC

10:58 AM EDT on September 29, 2016 (GMT -0400)
Greenville-Spartanburg International

Weather History for KGSP - February, 2015

Change the Weather History Date:

Thursday, February 12, 2015

  Actual Average Record
Temperature  
Mean Temperature 43 °F 45 °F  
Max Temperature 60 °F 56 °F 75 °F (1987)
Min Temperature 26 °F 34 °F 13 °F (1968)
Degree Days  
Heating Degree Days 22 20  
Month to date heating degree days 249 249  
Since 1 July heating degree days 2127 2159  
Cooling Degree Days 0 0  
Month to date cooling degree days 0 0  
Year to date cooling degree days 0 0  
Moisture  
Dew Point 22 °F    
Average Humidity 56    
Maximum Humidity 92    
Minimum Humidity 19    
Precipitation  
Precipitation 0.00 in 0.13 in 1.75 in (1900)
Month to date precipitation 1.34 1.59  
Year to date precipitation 5.20 5.41  
Snow  
Snow 0.00 in 0.00 in 5.00 in (1895)
Month to date snowfall 0.0 0.4  
Since 1 July snowfall T 3.2  
Snow Depth 0.00 in    
Sea Level Pressure  
Sea Level Pressure 29.96 in    
Wind  
Wind Speed 8 mph (NW)    
Max Wind Speed 26 mph    
Max Gust Speed 41 mph    
Visibility 10 miles    
Events      
T = Trace of Precipitation, MM = Missing Value Source: NWS Daily Summary

Daily Weather History Graph

Daily Weather History Graph

Search for Another Location

Airport or City:

Trip Planner

Search our weather history database for the weather conditions in past years. The results will help you decide how hot, cold, wet, or windy it might be!

Date:

Astronomy

Feb. 12, 2015 Rise Set
Actual Time 7:18 AM EST 6:08 PM EST
Civil Twilight 6:52 AM EST 6:34 PM EST
Nautical Twilight 6:22 AM EST 7:04 PM EST
Astronomical Twilight 5:52 AM EST 7:33 PM EST
Moon 1:17 AM EST (2/12) 12:06 PM EST (2/12)
Length of Visible Light 11h 42m
Length of Day
10h 50m
Last Quarter, 44% of the Moon is Illuminated
Feb 12
Last Quarter
Feb 18
New
Feb 25
First Quarter
Mar 5
Full
Mar 13
Last Quarter

Hourly Weather History & Observations

Time (EST) Temp. Windchill Dew Point Humidity Pressure Visibility Wind Dir Wind Speed Gust Speed Precip Events Conditions
12:53 AM 41.0 °F - 35.1 °F 79% 29.91 in 10.0 mi Calm Calm - N/A   Clear
1:53 AM 36.0 °F 33.3 °F 33.1 °F 89% 29.90 in 9.0 mi South 3.5 mph - N/A   Clear
2:53 AM 39.0 °F 36.8 °F 33.1 °F 79% 29.89 in 10.0 mi WNW 3.5 mph - N/A   Clear
3:53 AM 39.2 °F 35.9 °F 30.2 °F 70% 29.87 in 10.0 mi WNW 4.6 mph - N/A   Clear
4:53 AM 36.0 °F 33.3 °F 30.9 °F 82% 29.87 in 10.0 mi NW 3.5 mph - N/A   Clear
5:53 AM 39.0 °F 35.7 °F 30.0 °F 70% 29.88 in 10.0 mi NW 4.6 mph - N/A   Clear
6:53 AM 39.0 °F 35.7 °F 28.9 °F 67% 29.88 in 10.0 mi NW 4.6 mph - N/A   Clear
7:53 AM 37.0 °F 34.5 °F 30.0 °F 76% 29.88 in 10.0 mi West 3.5 mph - N/A   Clear
8:53 AM 43.0 °F 40.3 °F 33.1 °F 68% 29.88 in 10.0 mi WNW 4.6 mph - N/A   Clear
9:53 AM 48.0 °F - 33.1 °F 56% 29.88 in 10.0 mi Variable 4.6 mph - N/A   Clear
10:53 AM 51.1 °F - 30.9 °F 46% 29.87 in 10.0 mi North - - N/A   Clear
11:53 AM 55.0 °F - 28.9 °F 37% 29.84 in 10.0 mi NW 8.1 mph - N/A   Clear
12:53 PM 59.0 °F - 26.1 °F 28% 29.82 in 10.0 mi West 12.7 mph - N/A   Clear
1:53 PM 57.9 °F - 15.1 °F 19% 29.83 in 10.0 mi North 9.2 mph 18.4 mph N/A   Clear
2:53 PM 48.0 °F - 21.0 °F 34% 29.90 in 10.0 mi NNW 12.7 mph 23.0 mph N/A   Clear
3:53 PM 43.0 °F 36.8 °F 16.0 °F 34% 29.96 in 10.0 mi NNW 11.5 mph 24.2 mph N/A   Clear
4:53 PM 37.9 °F 28.5 °F 14.0 °F 38% 30.03 in 10.0 mi North 17.3 mph 32.2 mph N/A   Clear
5:53 PM 33.1 °F 23.4 °F 10.0 °F 38% 30.09 in 9.0 mi North 13.8 mph 32.2 mph N/A   Clear
6:53 PM 30.9 °F 24.3 °F 7.0 °F 37% 30.12 in 10.0 mi NNW 6.9 mph 24.2 mph N/A   Clear
7:53 PM 28.9 °F 18.6 °F 8.1 °F 41% 30.15 in 10.0 mi NNW 12.7 mph 31.1 mph N/A   Clear
8:53 PM 28.0 °F 18.1 °F 7.0 °F 41% 30.18 in 10.0 mi North 11.5 mph 21.9 mph N/A   Clear
9:53 PM 27.0 °F 13.9 °F 8.1 °F 45% 30.20 in 10.0 mi NW 18.4 mph 27.6 mph N/A   Clear
10:53 PM 26.1 °F 18.4 °F 8.1 °F 47% 30.19 in 10.0 mi Variable 6.9 mph 19.6 mph N/A   Clear
11:53 PM 26.1 °F 20.5 °F 8.1 °F 47% 30.19 in 10.0 mi Variable 4.6 mph - N/A   Clear